RH
6 6 8 9 13 20 27 32 36 38 37 39 37 35 37 39 41 52 53 51 53 59 59 53 51 52 52 52 55 51 50 47 46 49 52 51 48 51 52 52 54 51 50 50 56 63 70 69 68
5 6 8 9 20 28 30 30 39 36 36 37 36 36 37 42 45 51 53 48 51 50 48 43 42 42 41 42 42 40 39 42 43 46 46 45 43 41 46 43 44 47 52 54 61 67 65 68 65
6 8 9 14 22 27 29 29 34 36 36 39 37 38 38 40 44 46 45 41 40 40 38 35 38 38 36 33 30 30 30 29 28 30 29 28 28 32 38 39 48 49 51 54 58 56 58 66 61
9 11 13 18 21 24 28 35 37 36 38 37 36 35 36 38 35 39 38 39 37 33 35 30 29 28 27 29 26 25 23 21 20 18 19 19 20 23 25 29 33 36 41 45 50 57 44 40 39
11 14 18 22 25 26 35 36 38 36 35 33 30 29 28 31 33 34 36 35 33 31 29 27 26 27 26 24 22 20 19 21 21 21 24 26 28 27 27 26 24 23 25 26 28 29 29 30 32
15 19 26 28 28 29 32 32 29 29 27 24 25 24 29 28 32 34 34 33 31 29 27 26 24 21 18 18 18 19 17 13 14 17 21 24 22 18 18 20 22 24 25 26 27 27 28 27 26
20 23 26 26 25 24 23 21 25 25 25 24 21 23 27 31 33 32 30 28 28 28 28 24 18 16 16 17 15 10 10 11 15 19 22 17 16 16 17 20 23 25 26 27 27 26 25 26 27
18 18 19 19 19 18 14 15 17 16 17 17 19 22 23 30 29 27 29 29 27 25 26 22 20 18 16 13 12 10 10 13 16 19 18 17 17 18 20 22 22 22 21 16 13 15 17 19 22
18 17 17 16 16 12 11 11 10 12 16 14 16 20 21 23 24 24 25 25 25 26 21 22 23 19 16 15 15 14 14 16 18 19 21 23 30 29 30 29 29 28 25 23 20 17 16 15 15
17 18 17 13 12 10 10 11 10 13 13 15 17 15 16 19 21 26 26 26 23 24 23 21 18 18 17 17 20 21 20 25 25 27 26 33 30 31 32 31 31 31 30 29 30 29 29 27 26
16 16 12 9 9 10 9 9 9 12 13 14 15 16 19 21 26 26 27 27 24 29 27 24 23 21 22 30 30 31 31 32 34 31 34 36 36 40 42 43 42 43 38 39 37 35 36 33 32
14 11 7 7 9 11 11 11 11 11 12 12 15 18 22 23 22 25 28 28 29 27 26 28 28 27 28 32 35 38 39 40 41 43 39 44 48 50 49 52 51 49 48 45 45 45 40 39 39
12 12 14 14 14 15 15 15 16 16 16 16 18 21 25 25 30 30 32 30 30 31 32 34 35 33 34 36 36 37 40 45 46 47 46 42 47 48 47 48 47 47 47 48 49 49 48 47 43
13 16 18 19 19 18 17 16 17 18 18 19 19 21 24 25 26 28 29 31 30 32 37 39 41 42 39 40 40 41 43 48 48 50 50 45 44 49 48 48 48 47 47 47 48 49 47 47 46
16 16 18 19 19 21 19 17 17 18 17 17 20 22 26 25 25 25 27 30 37 39 41 44 46 47 43 44 44 46 49 49 54 54 48 48 48 47 46 50 49 49 48 46 46 46 45 45 47
18 18 18 19 20 21 20 23 20 20 20 19 19 20 24 25 26 29 32 36 38 39 41 44 47 50 47 47 49 50 53 51 53 51 52 53 55 53 52 54 52 50 49 49 49 49 48 47 46
15 15 15 17 19 20 20 21 21 20 20 21 21 21 22 25 29 34 34 37 39 41 44 46 48 52 49 47 50 51 53 55 58 57 59 58 57 58 57 56 56 55 52 49 48 48 48 48 49
16 17 17 17 17 19 21 21 20 21 21 22 23 22 22 25 33 38 38 38 39 42 44 46 51 54 52 53 54 55 60 60 59 60 60 59 54 54 53 52 51 53 54 54 53 52 51 51 49
15 17 19 19 19 21 22 21 22 24 25 25 24 24 26 29 31 35 37 38 38 38 40 47 54 55 56 60 61 65 65 62 60 60 59 56 56 56 56 55 54 55 58 59 59 59 60 58 58
19 20 21 21 22 23 24 23 23 25 26 27 28 30 31 32 34 34 37 37 38 41 44 49 54 58 60 62 65 65 64 64 63 63 65 65 62 62 62 61 59 60 59 59 60 59 57 59 61
22 22 24 24 23 23 24 26 25 26 28 30 31 32 33 35 36 37 39 41 44 46 51 55 59 61 63 63 64 65 67 67 67 68 68 69 70 69 65 60 57 55 54 54 54 54 56 57 56
23 23 26 25 25 24 25 32 28 29 31 33 36 37 38 38 39 42 44 47 50 52 55 58 60 60 59 62 64 65 66 68 68 68 72 77 75 68 65 59 55 50 50 51 48 49 49 53 50
30 29 28 27 28 26 27 28 35 32 36 38 39 40 41 43 46 48 50 53 55 55 57 58 60 60 62 62 64 64 72 82 78 73 72 72 69 64 60 56 47 45 46 45 46 47 49 49 49
31 30 30 32 33 35 34 33 35 35 39 41 41 43 44 47 51 53 54 56 59 62 64 62 64 65 64 63 63 68 67 66 63 62 60 55 52 49 50 51 48 46 44 43 42 41 41 43 44
32 33 35 41 43 39 37 36 39 40 42 43 43 46 50 53 55 59 61 62 63 63 64 64 66 67 66 68 69 63 61 59 57 55 52 50 49 50 49 44 41 40 36 35 33 35 39 44 48
38 37 42 43 39 40 38 37 40 43 43 44 45 50 53 57 59 58 57 58 60 60 61 66 67 67 70 69 64 59 54 54 54 54 54 51 45 42 40 37 36 37 39 42 44 46 50 54 57
43 44 43 47 48 47 36 40 44 44 46 48 51 55 58 59 59 56 56 59 60 61 61 59 57 56 56 55 54 52 54 56 58 55 50 44 40 40 42 44 49 52 53 53 55 58 62 65 70
39 40 47 46 59 44 33 40 40 43 47 50 54 58 60 59 56 56 57 56 55 55 55 55 55 57 59 60 60 58 60 58 54 47 42 38 34 36 41 49 52 55 58 66 70 75 81 82 82
39 43 44 44 49 55 49 34 42 43 47 51 54 57 59 61 60 58 57 57 58 59 60 58 59 62 63 65 60 52 47 45 44 41 38 40 43 45 50 56 61 67 73 78 84 88 90 96 97
44 47 46 51 53 53 52 40 38 44 51 52 56 59 61 61 60 62 62 63 63 64 63 65 65 61 55 49 49 41 45 44 42 42 47 49 50 52 55 64 71 78 83 87 91 94 93 92 91